カタログに戻る

XINGWANG JISHU SW 10-03

運用中科学VLEO
NORAD 69322·PAYLOAD·🇨🇳 China
この衛星名は、まだ公式ソースで確認されていません。

打ち上げ May 30, 2026 から Xichang Satellite Launch Center

Loading…

次のパス (今後24時間)

TLE

最新Source: Space-Track

元期: Sep 14, 2026, 05:36 UTC

1 69322U 26120C   26257.23355732  .00010312  00000-0  28662-3 0  9999
2 69322  54.9978 347.2424 0010330 172.7098 187.4082 15.37454904 16394

AllMySatでXINGWANG JISHU SW 10-03をリアルタイム追跡

Download on the App Store